Wind_Speed
7 7 7 8 9 9 10 10 10 10 10 10 10 11 10 10 9 9 9 9 9 9 10 10 9 9 10 10 11 12 12 12 12 14 14 15 15 15 15 16 16 16 16
5 6 7 8 9 9 10 10 11 11 11 11 12 11 11 10 9 9 9 10 10 10 10 10 10 10 10 10 11 11 12 12 13 14 15 16 16 16 16 16 17 17 17
6 6 7 8 8 9 10 10 11 11 12 12 13 12 11 10 10 10 10 10 10 10 10 11 11 11 11 11 11 12 13 13 13 14 15 15 17 17 17 17 18 18 18
7 7 8 8 8 9 10 10 11 12 13 13 13 12 11 11 10 10 11 11 11 10 11 12 11 11 12 12 12 13 13 14 14 14 15 16 17 17 18 18 18 19 19
7 8 9 8 9 10 10 11 11 13 14 14 14 13 12 11 11 11 12 12 12 11 12 12 12 12 12 12 13 13 13 14 14 15 16 17 17 17 18 19 19 20 21
8 8 9 9 10 10 11 12 13 14 15 15 14 13 12 11 11 12 13 13 13 13 13 13 13 13 13 13 13 13 14 14 15 16 15 16 17 18 18 20 20 20 20
8 9 10 10 11 12 12 13 14 15 15 15 15 14 12 12 12 12 13 14 14 14 15 15 14 13 13 13 14 14 14 15 15 16 16 16 17 17 18 19 20 20 21
9 10 11 11 12 13 13 14 15 15 16 15 14 13 13 14 13 14 14 14 15 15 16 16 15 14 14 14 14 15 15 15 16 16 16 16 17 18 19 19 20 20 21
10 10 11 12 12 13 14 15 15 16 15 15 15 14 14 15 14 15 15 16 16 17 17 16 16 15 15 16 15 15 15 15 16 16 16 17 18 19 20 20 20 21 22
11 11 12 12 13 13 14 15 15 15 15 15 15 15 15 16 16 16 16 17 18 17 17 17 17 17 17 17 17 16 16 16 17 17 17 18 19 20 21 21 21 21 22
12 12 13 13 13 14 15 15 16 16 16 16 16 16 16 17 17 17 18 18 18 18 18 18 18 18 18 17 17 17 17 17 17 18 18 19 20 21 22 22 23 23 23
13 13 13 14 14 15 15 16 17 17 17 17 17 17 18 18 18 18 19 19 18 19 19 19 19 19 18 18 18 18 17 17 18 19 19 20 21 21 22 23 24 24 25
14 14 14 15 15 16 16 17 18 18 18 18 18 19 19 19 18 19 19 19 19 19 20 20 20 20 20 19 19 18 19 19 19 19 20 21 22 23 23 24 24 25 26
15 16 15 16 17 17 17 17 18 18 18 18 19 20 20 20 19 19 20 20 20 20 21 21 21 21 20 20 20 20 20 20 21 21 21 22 22 23 23 24 24 26 27
16 16 16 17 17 18 18 18 19 19 19 20 21 21 22 21 20 20 20 20 20 20 21 20 20 21 21 21 21 21 21 22 23 23 23 24 24 25 25 25 26 26 27
16 17 17 17 18 18 19 19 20 20 20 21 22 22 22 22 22 21 21 20 20 20 21 21 21 22 22 21 22 22 23 23 24 25 25 26 26 26 26 27 27 28 28
16 17 17 18 18 19 20 21 21 22 21 21 21 21 22 22 22 22 22 21 21 22 22 22 22 22 22 22 23 24 25 25 25 26 26 26 26 27 27 27 28 28 28
17 18 18 19 20 20 21 22 23 23 23 23 22 21 22 22 23 23 23 23 23 23 23 23 23 23 23 24 24 25 25 25 26 25 25 26 27 27 27 28 29 29 29
19 20 20 20 21 22 22 23 23 23 23 23 23 23 23 23 24 24 24 24 24 24 25 25 24 24 24 25 25 25 26 26 26 26 26 26 27 27 27 28 28 28 28
21 21 22 22 22 23 23 23 23 23 24 24 24 24 24 24 25 25 25 25 25 25 25 25 25 25 25 25 26 26 26 26 26 26 26 26 26 26 27 27 27 27 28
22 22 23 23 23 23 24 24 25 24 24 24 24 25 25 25 25 25 25 25 25 26 26 26 26 26 25 25 26 26 26 27 27 27 27 27 27 27 27 27 27 27 27
23 22 23 24 24 24 24 25 25 25 25 24 24 25 25 26 26 26 26 27 27 27 27 26 26 26 26 26 26 27 27 27 27 27 28 28 28 28 28 28 28 27 26
24 25 25 25 25 25 25 25 25 26 26 25 26 26 26 27 27 27 27 28 28 28 27 27 27 27 26 26 26 27 27 27 27 28 28 28 28 29 28 28 28 27 26
25 26 26 26 26 26 26 26 27 27 27 27 27 27 27 27 27 27 27 28 28 27 27 26 26 26 26 26 27 27 27 27 27 28 28 28 28 28 28 27 27 26 24
26 25 26 25 26 26 27 27 28 27 27 27 26 26 26 27 27 27 27 27 27 26 26 25 25 26 25 26 26 26 27 27 27 27 27 27 28 28 28 26 25 24 23
27 27 27 27 27 28 28 27 28 27 26 26 26 26 26 26 27 28 28 28 27 27 27 26 25 25 26 26 26 26 27 27 27 27 26 26 26 27 27 26 25 24 23
Wind_Direction
360 356 357 356 357 2 3 3 358 354 353 354 352 350 346 341 332 332 333 332 331 327 323 315 306 300 293 285 277 274 272 272 266 260 259 260 261 262 262 259 259 259 260
2 355 350 348 349 352 357 2 360 355 350 348 346 345 341 339 336 328 330 329 326 325 322 317 309 304 300 292 285 278 272 271 270 263 259 259 260 261 261 261 259 260 262
342 340 340 342 346 349 351 351 351 351 349 346 344 342 338 336 334 332 332 330 325 322 321 319 314 304 297 295 288 283 278 274 270 266 263 261 259 260 260 261 262 262 263
331 333 336 337 339 344 346 346 346 345 342 339 339 340 337 334 333 332 333 333 329 325 322 316 313 306 302 298 292 284 282 278 273 268 266 265 264 259 260 262 265 265 265
331 333 335 331 334 337 340 342 341 339 335 333 333 334 332 330 328 330 331 328 326 326 323 318 314 308 303 300 296 288 285 281 277 274 270 266 264 263 263 263 265 266 266
328 331 330 328 326 328 333 335 334 335 334 331 329 328 326 325 324 325 326 324 323 323 323 321 317 312 307 303 299 294 288 285 281 278 275 271 268 265 265 265 264 266 268
324 325 324 321 321 323 326 330 330 329 328 328 327 326 324 324 321 322 321 319 318 320 320 319 317 314 311 305 302 300 294 287 283 279 276 274 272 269 268 268 268 269 269
319 320 320 320 320 321 323 326 326 325 324 323 324 325 324 324 321 319 320 319 317 315 315 314 312 310 309 306 304 302 298 292 287 283 280 276 273 273 271 271 271 270 269
311 313 316 317 317 318 320 322 324 325 325 321 319 320 318 317 316 316 318 318 317 315 313 311 308 307 306 304 302 300 299 298 291 287 283 280 277 275 275 273 272 272 271
303 306 308 311 316 316 317 320 321 324 324 321 318 316 316 314 311 310 313 316 316 316 314 311 309 308 307 305 303 301 298 297 292 288 284 283 282 280 278 276 275 274 272
302 306 309 310 312 316 317 319 318 318 317 316 315 314 312 310 309 309 309 311 312 312 311 311 310 309 306 305 304 302 299 296 293 291 289 286 285 285 282 280 278 275 274
304 307 310 312 313 314 315 319 317 314 313 313 312 311 308 306 305 305 307 307 307 309 309 308 307 305 303 302 300 299 300 298 296 293 291 290 289 288 284 281 280 279 278
303 306 309 311 311 311 312 314 316 313 311 310 310 311 308 304 302 303 305 304 304 306 309 308 305 304 303 301 300 299 299 297 296 294 292 291 291 290 286 283 281 281 281
303 304 306 308 308 310 312 313 315 314 312 310 309 308 309 306 306 306 306 303 302 305 307 308 307 305 304 303 302 300 298 298 297 295 293 292 292 293 289 286 285 284 282
304 304 303 306 308 309 310 310 312 312 312 310 311 310 309 306 308 309 307 305 305 306 307 309 310 309 306 304 303 302 298 297 297 295 293 291 292 292 291 289 288 286 285
302 303 303 305 307 307 307 308 310 311 311 310 310 311 312 310 310 312 308 304 305 306 307 307 308 307 306 304 303 302 301 298 296 295 293 291 291 292 292 291 289 288 288
301 303 305 307 307 306 306 306 307 309 309 308 309 311 311 312 313 312 310 307 304 304 304 303 303 304 303 302 302 302 301 300 299 298 296 294 293 292 292 292 292 292 292
302 303 304 305 305 305 306 306 306 307 307 307 307 308 309 311 312 312 309 307 305 303 302 302 302 302 301 301 301 301 301 300 299 300 298 297 295 294 293 292 293 293 293
301 302 303 304 304 305 305 306 306 307 307 306 307 307 308 310 309 309 308 307 306 305 304 306 305 304 304 303 302 301 301 301 300 298 298 299 298 297 295 295 294 293 293
299 299 300 302 303 303 304 305 304 304 304 304 305 305 306 308 308 307 305 305 305 305 305 304 306 306 305 304 303 302 301 300 300 299 299 300 301 300 299 298 297 295 295
296 298 298 299 300 302 303 304 303 303 304 303 304 305 306 307 308 306 304 303 303 303 303 304 304 305 304 303 303 303 302 301 300 300 300 301 302 301 300 300 298 297 297
295 296 297 298 301 303 303 303 304 304 303 303 304 304 305 306 306 305 304 303 303 303 303 303 303 303 303 303 304 304 303 303 301 300 301 302 302 301 300 300 299 298 297
295 298 300 298 299 301 302 302 304 305 303 303 304 305 305 306 306 306 305 305 306 304 303 302 302 301 301 302 303 304 303 302 301 302 301 301 301 302 301 301 300 298 297
295 296 297 297 298 299 300 301 301 303 302 300 301 302 304 306 306 306 306 306 306 305 304 302 301 301 302 303 304 304 304 302 301 302 303 303 303 303 303 302 300 299 298
293 295 296 297 297 297 299 300 300 300 300 300 301 302 304 307 307 308 308 306 305 304 303 302 302 302 302 303 305 306 306 304 304 303 304 305 305 304 304 302 300 299 296
290 293 295 296 297 297 297 299 300 299 299 300 301 303 305 307 308 309 309 307 305 303 301 301 300 301 302 303 305 306 306 305 305 306 306 307 307 306 304 302 301 299 297
Height
5892 5891 5890 5888 5887 5885 5883 5881 5879 5878 5876 5874 5871 5870 5869 5868 5867 5866 5865 5863 5862 5860 5859 5858 5857 5856 5855 5855 5854 5854 5854 5854 5854 5854 5855 5856 5856 5856 5856 5856 5857 5857 5857
5892 5890 5889 5888 5886 5885 5882 5880 5878 5877 5875 5873 5870 5869 5868 5867 5866 5864 5863 5861 5860 5858 5857 5856 5854 5854 5853 5852 5851 5851 5851 5851 5850 5851 5851 5852 5853 5852 5852 5853 5853 5853 5853
5891 5890 5888 5887 5885 5884 5882 5880 5878 5876 5874 5872 5870 5868 5867 5865 5864 5863 5861 5860 5858 5856 5855 5853 5852 5851 5850 5849 5848 5847 5847 5847 5847 5847 5847 5847 5848 5848 5848 5848 5849 5849 5849
5890 5889 5888 5886 5885 5883 5881 5879 5877 5876 5874 5871 5869 5867 5865 5864 5863 5861 5860 5858 5856 5854 5853 5851 5849 5848 5847 5846 5845 5844 5844 5843 5843 5843 5843 5843 5843 5844 5844 5844 5844 5844 5844
5889 5888 5887 5885 5883 5882 5880 5878 5876 5874 5872 5870 5868 5865 5863 5862 5861 5860 5858 5856 5854 5853 5850 5849 5847 5845 5844 5843 5842 5841 5840 5839 5839 5839 5838 5838 5839 5839 5839 5840 5840 5839 5839
5888 5887 5885 5884 5882 5880 5879 5877 5874 5873 5870 5868 5866 5864 5862 5860 5859 5857 5856 5854 5852 5851 5848 5846 5844 5842 5841 5839 5838 5837 5836 5835 5835 5835 5834 5834 5834 5834 5834 5834 5834 5834 5834
5887 5885 5884 5882 5881 5879 5877 5875 5873 5871 5869 5866 5864 5862 5860 5859 5857 5855 5854 5852 5850 5848 5846 5844 5842 5840 5838 5836 5835 5833 5832 5831 5830 5830 5830 5830 5830 5829 5829 5829 5829 5829 5828
5886 5884 5882 5880 5879 5877 5875 5873 5871 5869 5866 5864 5862 5860 5859 5857 5855 5853 5851 5849 5847 5845 5843 5841 5839 5837 5835 5833 5831 5830 5828 5827 5826 5825 5825 5825 5825 5824 5824 5824 5824 5824 5823
5884 5882 5880 5878 5877 5875 5873 5871 5869 5866 5864 5862 5860 5858 5856 5854 5852 5850 5848 5846 5844 5842 5840 5837 5835 5833 5831 5829 5828 5826 5824 5823 5822 5821 5820 5820 5819 5819 5818 5818 5818 5818 5817
5882 5880 5878 5876 5875 5873 5871 5869 5866 5864 5862 5859 5857 5855 5853 5851 5849 5847 5845 5843 5841 5839 5836 5834 5832 5830 5828 5826 5824 5822 5820 5819 5817 5816 5815 5815 5814 5813 5812 5812 5811 5811 5811
5879 5877 5875 5874 5872 5870 5868 5866 5864 5861 5859 5856 5854 5852 5850 5848 5846 5844 5842 5840 5837 5835 5833 5830 5828 5826 5824 5822 5820 5818 5816 5814 5813 5812 5810 5809 5808 5807 5806 5805 5805 5804 5804
5876 5874 5873 5871 5869 5867 5865 5863 5860 5858 5855 5853 5850 5848 5846 5844 5841 5839 5837 5835 5833 5831 5829 5826 5824 5822 5820 5818 5816 5814 5812 5810 5808 5807 5805 5804 5803 5801 5800 5799 5798 5797 5796
5873 5872 5870 5868 5866 5864 5861 5859 5857 5854 5851 5849 5847 5844 5842 5839 5836 5834 5832 5830 5828 5826 5824 5822 5820 5817 5815 5813 5811 5809 5807 5805 5803 5801 5800 5798 5797 5795 5794 5793 5791 5790 5789
5870 5868 5866 5864 5862 5860 5858 5856 5853 5850 5848 5845 5843 5840 5837 5835 5833 5830 5828 5825 5823 5821 5819 5817 5815 5812 5810 5808 5806 5804 5802 5800 5798 5796 5794 5793 5791 5789 5787 5786 5784 5783 5782
5867 5865 5863 5861 5858 5856 5854 5852 5849 5847 5844 5841 5838 5836 5833 5830 5828 5825 5823 5820 5818 5816 5814 5812 5810 5807 5805 5803 5801 5799 5797 5795 5792 5791 5789 5787 5785 5783 5781 5779 5777 5775 5774
5863 5861 5859 5856 5854 5852 5850 5847 5845 5842 5840 5837 5834 5831 5829 5826 5823 5820 5818 5815 5813 5811 5809 5807 5804 5802 5800 5798 5795 5793 5791 5788 5786 5784 5782 5780 5778 5776 5774 5772 5770 5768 5766
5858 5856 5854 5852 5850 5847 5845 5843 5840 5838 5835 5832 5829 5827 5824 5821 5818 5816 5813 5811 5808 5806 5804 5801 5799 5797 5794 5792 5789 5787 5785 5782 5780 5777 5775 5773 5771 5768 5766 5764 5762 5759 5757
5854 5852 5850 5847 5845 5843 5840 5837 5835 5832 5830 5827 5825 5822 5820 5817 5814 5811 5808 5806 5803 5801 5798 5796 5793 5790 5788 5786 5783 5781 5778 5776 5773 5771 5768 5766 5763 5761 5758 5756 5754 5751 5749
5849 5847 5845 5842 5840 5837 5835 5832 5829 5827 5825 5822 5820 5817 5814 5811 5808 5806 5803 5800 5798 5795 5792 5790 5787 5784 5782 5779 5777 5774 5772 5769 5766 5764 5761 5758 5756 5753 5751 5749 5746 5743 5740
5843 5841 5839 5837 5834 5832 5829 5827 5824 5822 5820 5817 5814 5811 5808 5806 5803 5800 5797 5794 5792 5789 5786 5784 5781 5778 5775 5773 5770 5767 5765 5762 5759 5756 5754 5751 5748 5746 5743 5740 5738 5735 5732
5837 5835 5833 5831 5829 5826 5824 5821 5819 5816 5814 5811 5808 5806 5803 5800 5797 5794 5791 5788 5785 5783 5780 5778 5775 5772 5769 5766 5763 5761 5758 5755 5752 5749 5746 5744 5741 5738 5735 5732 5730 5727 5724
5832 5830 5827 5825 5823 5820 5818 5816 5813 5810 5808 5805 5803 5800 5797 5794 5791 5788 5784 5781 5779 5776 5773 5770 5768 5765 5762 5759 5756 5753 5750 5748 5745 5742 5739 5736 5733 5730 5727 5724 5721 5718 5715
5825 5823 5821 5819 5817 5815 5812 5810 5807 5804 5801 5799 5796 5793 5790 5787 5784 5781 5778 5775 5772 5768 5766 5763 5761 5758 5755 5752 5749 5746 5743 5740 5737 5735 5732 5728 5725 5722 5719 5715 5712 5709 5707
5819 5817 5815 5813 5811 5808 5806 5803 5800 5797 5794 5792 5789 5786 5784 5781 5777 5774 5771 5768 5764 5761 5758 5756 5753 5751 5748 5745 5742 5739 5736 5733 5730 5727 5724 5720 5717 5714 5711 5707 5704 5701 5699
5812 5810 5808 5806 5804 5801 5799 5796 5793 5791 5788 5785 5782 5779 5777 5774 5770 5767 5764 5761 5757 5754 5752 5749 5746 5744 5741 5738 5735 5732 5729 5725 5722 5719 5716 5713 5709 5706 5703 5699 5696 5694 5691
5805 5803 5801 5799 5796 5794 5792 5789 5786 5784 5781 5778 5776 5773 5770 5767 5763 5760 5757 5753 5750 5747 5745 5742 5739 5737 5734 5731 5728 5725 5721 5718 5715 5712 5709 5705 5702 5699 5695 5692 5689 5687 5684